EW9717 Weather Reports


time (UTC)temp
C
wind
direction
speed
KPH
gust
KPH
rain 1hr
cm
rain 24hr
cm
rain mn
cm
humidity
%
barometer
mb
20260507155822 13 0 9.7 20.9 0.00 0.00 0.00 62 1023.3
20260507155323 12 266 11.3 19.3 0.00 0.00 0.00 63 1023.4
20260507154818 12 207 11.3 17.7 0.00 0.00 0.00 65 1023.5
20260507154548 12 269 9.7 16.1 0.00 0.00 0.00 67 1023.6
20260507153811 12 0 9.7 19.3 0.00 0.00 0.00 69 1023.6
20260507153312 11 169 9.7 19.3 0.00 0.00 0.00 72 1023.6
20260507152814 11 255 9.7 20.9 0.00 0.00 0.00 74 1023.7
20260507152312 11 0 8.0 20.9 0.00 0.00 0.00 76 1023.9
20260507152044 10 256 8.0 14.5 0.00 0.00 0.00 79 1023.9
20260507151310 10 219 8.0 14.5 0.00 0.00 0.00 81 1023.9
20260507150808 9 289 6.4 11.3 0.00 0.00 0.00 83 1023.9
20260507150304 8 301 6.4 12.9 0.00 0.00 0.00 84 1023.9
20260507145803 8 297 6.4 12.9 0.00 0.00 0.00 85 1023.9
20260507145301 8 300 6.4 12.9 0.00 0.00 0.00 85 1024.0
20260507144801 8 312 6.4 12.9 0.00 0.00 0.00 85 1024.1
20260507144302 7 311 6.4 12.9 0.00 0.00 0.00 86 1024.1
20260507144031 7 313 6.4 11.3 0.00 0.00 0.00 86 1024.2
20260507143530 7 312 6.4 11.3 0.00 0.00 0.00 87 1024.2
20260507142755 7 317 4.8 12.9 0.00 0.00 0.00 87 1024.2
20260507142244 7 317 4.8 12.9 0.00 0.00 0.00 87 1024.3
20260507141743 6 315 6.4 11.3 0.00 0.00 0.00 87 1024.3
20260507141242 6 311 6.4 11.3 0.00 0.00 0.00 87 1024.4
20260507140741 6 304 8.0 12.9 0.00 0.00 0.00 87 1024.4
20260507140236 6 305 8.0 12.9 0.00 0.00 0.00 87 1024.4
20260507135735 6 309 6.4 14.5 0.00 0.00 0.00 87 1024.6
20260507135235 6 302 6.4 14.5 0.00 0.00 0.00 87 1024.5
20260507134734 6 314 6.4 11.3 0.00 0.00 0.00 87 1024.4
20260507134234 6 0 6.4 17.7 0.00 0.00 0.00 87 1024.5
20260507133732 5 311 8.0 17.7 0.00 0.00 0.00 86 1024.6
20260507133233 5 317 8.0 11.3 0.00 0.00 0.00 86 1024.6
20260507133228 5 319 8.0 14.5 0.00 0.00 0.00 86 1024.5
20260507132226 5 313 6.4 14.5 0.00 0.00 0.00 86 1024.5
20260507131727 5 322 4.8 11.3 0.00 0.00 0.00 86 1024.6
20260507131723 5 314 6.4 11.3 0.00 0.00 0.00 86 1024.6
20260507130718 5 314 4.8 9.7 0.00 0.00 0.00 86 1024.6
20260507130214 5 311 4.8 9.7 0.00 0.00 0.00 86 1024.5
20260507125943 5 311 4.8 9.7 0.00 0.00 0.00 85 1024.3
20260507125209 5 309 6.4 14.5 0.00 0.00 0.00 85 1024.4
20260507124708 5 312 6.4 14.5 0.00 0.00 0.00 85 1024.3
20260507124208 5 0 6.4 14.5 0.00 0.00 0.00 85 1024.4
20260507123709 5 352 4.8 9.7 0.00 0.00 0.00 85 1024.3
20260507123208 4 357 4.8 9.7 0.00 0.00 0.00 85 1024.2
20260507122706 4 38 3.2 6.4 0.00 0.00 0.00 85 1024.1
20260507122206 4 43 3.2 8.0 0.00 0.00 0.00 84 1024.0
20260507121936 4 49 3.2 8.0 0.00 0.00 0.00 84 1024.0
20260507121201 4 51 4.8 9.7 0.00 0.00 0.00 84 1024.0
20260507120928 4 30 4.8 9.7 0.00 0.00 0.00 84 1024.0
20260507120154 4 0 3.2 6.4 0.00 0.00 0.00 84 1024.0
20260507115654 4 0 3.2 6.4 0.00 0.00 0.00 83 1024.0
20260507115155 4 0 3.2 6.4 0.00 0.00 0.00 84 1023.9
20260507114649 4 28 1.6 4.8 0.00 0.00 0.00 83 1023.8
20260507114145 5 30 1.6 8.0 0.00 0.00 0.00 83 1023.8
20260507113633 5 32 3.2 8.0 0.00 0.00 0.00 83 1023.8
20260507113131 5 0 3.2 6.4 0.00 0.00 0.00 83 1023.6
20260507112632 5 32 3.2 6.4 0.00 0.00 0.00 83 1023.7
20260507112132 5 0 3.2 8.0 0.00 0.00 0.00 83 1023.8
20260507111633 5 0 3.2 8.0 0.00 0.00 0.00 82 1023.9
20260507111130 5 11 3.2 6.4 0.00 0.00 0.00 82 1023.9
20260507110628 5 12 3.2 6.4 0.00 0.00 0.00 82 1024.0
20260507110127 5 11 3.2 8.0 0.00 0.00 0.00 82 1023.8
20260507105626 5 10 3.2 8.0 0.00 0.00 0.00 82 1024.0
20260507105126 5 0 3.2 8.0 0.00 0.00 0.00 81 1023.9
20260507104620 5 13 3.2 8.0 0.00 0.00 0.00 81 1023.8
20260507104349 5 12 3.2 6.4 0.00 0.00 0.00 81 1023.8
20260507103619 5 10 1.6 4.8 0.00 0.00 0.00 81 1023.9
20260507103334 5 8 1.6 4.8 0.00 0.00 0.00 80 1023.8
20260507102601 5 8 1.6 3.2 0.00 0.00 0.00 80 1023.7
20260507102101 5 8 0.0 3.2 0.00 0.00 0.00 80 1023.8
20260507101557 5 8 0.0 1.6 0.00 0.00 0.00 80 1023.7
20260507101054 5 9 0.0 1.6 0.00 0.00 0.00 80 1023.8
20260507100555 5 11 0.0 1.6 0.00 0.00 0.00 80 1023.7
20260507100316 5 11 1.6 3.2 0.00 0.00 0.00 79 1023.7
20260507095505 5 11 1.6 6.4 0.00 0.00 0.00 79 1023.8
20260507095003 6 12 3.2 6.4 0.00 0.00 0.00 79 1023.8
20260507094455 6 15 3.2 8.0 0.00 0.00 0.00 79 1023.8
20260507093953 6 0 4.8 8.0 0.00 0.00 0.00 78 1023.7
20260507093440 6 0 4.8 9.7 0.00 0.00 0.00 78 1023.6
20260507093212 6 0 4.8 9.7 0.00 0.00 0.00 78 1023.8
20260507092434 6 10 4.8 9.7 0.00 0.00 0.00 77 1023.8
20260507091934 6 14 4.8 9.7 0.00 0.00 0.00 77 1023.7
20260507091434 6 0 4.8 9.7 0.00 0.00 0.00 77 1023.6
20260507090935 6 0 4.8 8.0 0.00 0.00 0.00 77 1023.7
20260507090432 6 9 4.8 8.0 0.00 0.00 0.00 76 1023.4
20260507085931 6 8 4.8 8.0 0.00 0.00 0.00 76 1023.4
20260507085430 6 0 3.2 8.0 0.00 0.00 0.00 76 1023.5
20260507084931 7 0 4.8 17.7 0.00 0.00 0.00 76 1023.2
20260507084651 7 9 4.8 17.7 0.00 0.00 0.00 75 1023.3
20260507083918 7 0 4.8 8.0 0.00 0.00 0.00 75 1023.3
20260507083418 7 0 4.8 6.4 0.00 0.00 0.00 75 1023.3
20260507083125 7 0 4.8 11.3 0.00 0.00 0.00 75 1023.2
20260507082354 7 0 4.8 11.3 0.00 0.00 0.00 76 1023.2
20260507081840 7 0 4.8 11.3 0.00 0.00 0.00 76 1023.1
20260507081333 7 14 4.8 9.7 0.00 0.00 0.00 76 1023.0
20260507080833 7 0 4.8 9.7 0.00 0.00 0.00 76 1023.1
20260507080329 7 0 4.8 9.7 0.00 0.00 0.00 76 1023.3
20260507075829 7 0 6.4 11.3 0.00 0.00 0.00 76 1023.1
20260507075330 7 0 6.4 11.3 0.00 0.00 0.00 76 1022.8
20260507074827 7 14 8.0 17.7 0.00 0.00 0.00 76 1022.8
20260507074558 7 16 11.3 17.7 0.00 0.00 0.00 76 1022.7
20260507073827 7 15 9.7 16.1 0.00 0.00 0.00 75 1022.9
20260507073328 7 15 9.7 14.5 0.00 0.00 0.00 75 1023.1
20260507073056 7 13 8.0 14.5 0.00 0.00 0.00 75 1023.6
20260507072323 7 0 6.4 12.9 0.00 0.00 0.00 75 1024.3
20260507072053 7 0 8.0 12.9 0.00 0.00 0.00 75 1024.2
20260507071309 7 0 8.0 11.3 0.00 0.00 0.00 75 1024.5
20260507071039 7 0 6.4 11.3 0.00 0.00 0.00 74 1024.2
20260507070308 7 0 4.8 8.0 0.00 0.00 0.00 74 1024.4
20260507065807 7 0 4.8 11.3 0.00 0.00 0.00 74 1024.5
20260507065306 7 0 6.4 11.3 0.00 0.00 0.00 74 1024.5
20260507064802 7 0 6.4 11.3 0.00 0.00 0.00 74 1024.5
20260507064257 7 0 8.0 14.5 0.00 0.00 0.00 74 1024.5
20260507063758 7 0 9.7 14.5 0.00 0.00 0.00 74 1024.4
20260507063754 7 0 9.7 14.5 0.00 0.00 0.00 73 1024.4
20260507063401 7 0 9.7 14.5 0.00 0.00 0.00 73 1024.6
20260507062248 7 6 9.7 17.7 0.00 0.00 0.00 73 1024.6
20260507061744 7 0 9.7 17.7 0.00 0.00 0.00 73 1024.7
20260507061242 7 0 8.0 16.1 0.00 0.00 0.00 73 1024.8
20260507060740 7 8 8.0 16.1 0.00 0.00 0.00 72 1024.4
20260507060511 7 0 9.7 16.1 0.00 0.00 0.00 72 1024.5
20260507055735 7 0 9.7 16.1 0.00 0.00 0.00 72 1024.3
20260507055235 7 6 9.7 16.1 0.00 0.00 0.00 72 1024.0
20260507054734 7 0 11.3 20.9 0.00 0.00 0.00 71 1023.8
20260507054232 7 0 12.9 24.1 0.00 0.00 0.00 71 1023.6
20260507053731 7 0 11.3 24.1 0.00 0.00 0.00 70 1023.3
20260507053231 7 0 11.3 17.7 0.00 0.00 0.00 70 1023.3
20260507053002 8 18 11.3 19.3 0.00 0.00 0.00 69 1023.7
20260507052231 8 0 9.7 19.3 0.00 0.00 0.00 69 1023.6
20260507051729 8 0 11.3 20.9 0.00 0.00 0.00 69 1023.6
20260507051229 8 0 14.5 29.0 0.00 0.00 0.00 68 1023.7
20260507050727 8 0 14.5 29.0 0.00 0.00 0.00 68 1023.5
20260507050454 8 0 14.5 20.9 0.00 0.00 0.00 68 1023.7
20260507050327 8 8 14.5 22.5 0.00 0.00 0.00 68 1023.7
20260507045450 8 0 14.5 24.1 0.00 0.00 0.00 68 1023.4
20260507044717 8 0 14.5 24.1 0.00 0.00 0.00 68 1023.3
20260507044218 8 1 14.5 24.1 0.00 0.00 0.00 68 1023.3
20260507043718 8 0 14.5 22.5 0.00 0.00 0.00 68 1023.1
20260507043218 8 4 14.5 24.1 0.00 0.00 0.00 68 1023.0
20260507042715 8 8 14.5 25.7 0.00 0.00 0.00 68 1022.8
20260507042215 8 13 16.1 25.7 0.00 0.00 0.00 68 1022.8
20260507041716 8 0 16.1 27.4 0.00 0.00 0.00 68 1023.1
20260507041215 8 0 14.5 27.4 0.00 0.00 0.00 68 1022.9
20260507040714 8 23 16.1 24.1 0.00 0.00 0.00 67 1022.8
20260507040212 8 0 14.5 27.4 0.00 0.00 0.00 67 1022.5
20260507035709 8 8 14.5 27.4 0.00 0.00 0.00 67 1022.3
20260507035436 9 7 14.5 24.1 0.00 0.00 0.00 67 1022.1
20260507034705 9 12 12.9 24.1 0.00 0.00 0.00 67 1021.9
20260507034204 9 0 14.5 24.1 0.00 0.00 0.00 67 1021.9
20260507033936 9 8 16.1 27.4 0.00 0.00 0.00 67 1022.2
20260507033816 9 0 17.7 27.4 0.00 0.00 0.00 67 1022.0
20260507032704 10 0 17.7 27.4 0.00 0.00 0.00 66 1021.8
20260507032201 10 1 16.1 30.6 0.00 0.00 0.00 66 1022.0
20260507031658 10 8 16.1 30.6 0.00 0.00 0.00 66 1021.6
20260507031157 10 4 14.5 27.4 0.00 0.00 0.00 65 1021.6
20260507030656 11 0 14.5 25.7 0.00 0.00 0.00 66 1021.7
20260507030152 11 6 16.1 25.7 0.00 0.00 0.00 64 1021.4
20260507025649 11 0 17.7 27.4 0.00 0.00 0.00 63 1021.3
20260507025148 11 6 17.7 27.4 0.00 0.00 0.00 61 1021.5
20260507024647 11 0 19.3 35.4 0.00 0.00 0.00 60 1021.4
20260507024147 12 4 20.9 35.4 0.00 0.00 0.00 57 1021.1
20260507023647 12 8 19.3 37.0 0.00 0.00 0.00 55 1021.0
20260507023145 13 6 19.3 37.0 0.00 0.00 0.00 52 1020.4
20260507022647 13 12 14.5 25.7 0.00 0.00 0.00 51 1020.2
20260507022642 13 8 17.7 30.6 0.00 0.00 0.00 51 1020.0
20260507021642 13 9 12.9 25.7 0.00 0.00 0.00 50 1020.3
20260507021141 13 7 14.5 30.6 0.00 0.00 0.00 50 1020.0
20260507020645 14 0 14.5 27.4 0.00 0.00 0.00 50 1019.5
20260507020641 13 7 16.1 30.6 0.00 0.00 0.00 50 1019.7
20260507015908 14 8 14.5 27.4 0.00 0.00 0.00 50 1019.0
20260507015137 14 39 14.5 27.4 0.00 0.00 0.00 49 1018.6
20260507014635 14 34 14.5 27.4 0.00 0.00 0.00 49 1018.4
20260507014135 14 0 16.1 29.0 0.00 0.00 0.00 50 1018.4
20260507013636 14 23 17.7 33.8 0.00 0.00 0.00 49 1018.0
20260507013134 14 30 16.1 33.8 0.00 0.00 0.00 49 1017.8
20260507012635 14 30 19.3 37.0 0.00 0.00 0.00 48 1017.4
20260507012135 15 40 20.9 37.0 0.00 0.00 0.00 48 1017.2
20260507011636 15 0 17.7 29.0 0.00 0.00 0.00 48 1017.0
20260507011134 15 0 16.1 32.2 0.00 0.00 0.00 48 1017.0
20260507010634 15 15 17.7 33.8 0.00 0.00 0.00 48 1016.7
20260507010136 15 0 19.3 33.8 0.00 0.00 0.00 47 1016.3
20260507005633 15 11 20.9 33.8 0.00 0.00 0.00 47 1016.2
20260507005131 15 13 20.9 33.8 0.00 0.00 0.00 46 1016.1
20260507004630 16 7 17.7 30.6 0.00 0.00 0.00 46 1015.9
20260507004131 16 0 17.7 29.0 0.00 0.00 0.00 46 1015.8
20260507003632 15 0 22.5 35.4 0.00 0.00 0.00 46 1015.7
20260507003129 15 0 25.7 41.8 0.00 0.00 0.00 46 1015.6
20260507002632 16 0 25.7 41.8 0.00 0.00 0.00 44 1015.7
20260507002626 16 0 27.4 41.8 0.00 0.00 0.00 45 1015.7
20260507001622 16 0 22.5 38.6 0.00 0.00 0.00 43 1015.4
20260507001124 16 0 24.1 37.0 0.00 0.00 0.00 43 1015.4
20260507000852 17 0 22.5 33.8 0.00 0.00 0.00 43 1015.4
20260507000352 17 0 22.5 37.0 0.00 0.00 0.00 42 1015.2
20260506235622 17 0 20.9 37.0 0.00 0.00 0.00 42 1014.9
20260506235120 17 0 22.5 35.4 0.00 0.00 0.00 42 1014.8
20260506234620 17 76 24.1 35.4 0.00 0.00 0.00 41 1014.7
20260506234122 17 0 20.9 33.8 0.00 0.00 0.00 40 1014.7
20260506233619 17 84 22.5 33.8 0.00 0.00 0.00 40 1014.7
20260506233118 17 112 22.5 33.8 0.00 0.00 0.00 41 1014.7
20260506232616 17 86 22.5 37.0 0.00 0.00 0.00 41 1014.8
20260506232115 17 0 22.5 45.1 0.00 0.00 0.00 41 1014.9
20260506231620 18 0 24.1 40.2 0.00 0.00 0.00 40 1014.8
20260506231615 17 0 22.5 45.1 0.00 0.00 0.00 40 1014.9
20260506230613 18 0 22.5 37.0 0.00 0.00 0.00 40 1014.8
20260506230343 18 0 19.3 32.2 0.00 0.00 0.00 39 1014.7
20260506225609 18 0 17.7 32.2 0.00 0.00 0.00 39 1014.7
20260506225109 18 0 19.3 32.2 0.00 0.00 0.00 39 1014.6
20260506224606 18 0 22.5 32.2 0.00 0.00 0.00 39 1014.4
20260506224105 18 0 22.5 32.2 0.00 0.00 0.00 39 1014.5
20260506223605 18 0 20.9 32.2 0.00 0.00 0.00 39 1014.4
20260506223106 18 91 22.5 35.4 0.00 0.00 0.00 39 1014.5
20260506222555 18 0 24.1 37.0 0.00 0.00 0.00 39 1014.5
20260506222052 18 49 22.5 37.0 0.00 0.00 0.00 38 1014.8
20260506221553 18 0 19.3 37.0 0.00 0.00 0.00 37 1014.8
20260506221053 19 0 16.1 32.2 0.00 0.00 0.00 36 1014.7
20260506220553 20 0 16.1 25.7 0.00 0.00 0.00 35 1014.6
20260506220052 20 0 16.1 25.7 0.00 0.00 0.00 36 1014.6
20260506215553 19 0 14.5 24.1 0.00 0.00 0.00 36 1014.7
20260506215323 19 65 14.5 24.1 0.00 0.00 0.00 36 1014.6
20260506214552 19 0 11.3 22.5 0.00 0.00 0.00 36 1014.6
20260506214052 19 82 11.3 22.5 0.00 0.00 0.00 36 1014.6
20260506213550 19 0 12.9 30.6 0.00 0.00 0.00 36 1014.6
20260506213044 19 56 14.5 30.6 0.00 0.00 0.00 36 1014.8
20260506212813 19 0 11.3 19.3 0.00 0.00 0.00 37 1014.7
20260506212313 18 67 9.7 20.9 0.00 0.00 0.00 37 1014.9
20260506211543 18 65 11.3 27.4 0.00 0.00 0.00 37 1015.0
20260506211313 18 0 12.9 27.4 0.00 0.00 0.00 37 1015.1
20260506210541 19 0 12.9 22.5 0.00 0.00 0.00 37 1015.1
20260506210310 19 65 12.9 24.1 0.00 0.00 0.00 36 1015.0
20260506205526 19 0 9.7 24.1 0.00 0.00 0.00 36 1014.9
20260506205024 20 74 8.0 17.7 0.00 0.00 0.00 35 1015.0
20260506204524 20 60 4.8 16.1 0.00 0.00 0.00 35 1015.1
20260506204019 20 61 6.4 14.5 0.00 0.00 0.00 36 1015.1
20260506203516 20 86 9.7 17.7 0.00 0.00 0.00 36 1015.3
20260506203247 20 143 9.7 17.7 0.00 0.00 0.00 36 1015.4
20260506202744 20 120 8.0 17.7 0.00 0.00 0.00 36 1015.5
20260506202244 19 4 8.0 17.7 0.00 0.00 0.00 37 1015.5
20260506201513 19 108 8.0 17.7 0.00 0.00 0.00 37 1015.5
20260506201013 19 87 9.7 19.3 0.00 0.00 0.00 38 1015.5
20260506200512 18 91 8.0 19.3 0.00 0.00 0.00 38 1015.6
20260506200008 18 97 8.0 17.7 0.00 0.00 0.00 38 1015.5
20260506195506 18 93 8.0 12.9 0.00 0.00 0.00 38 1015.6
20260506195008 18 100 9.7 24.1 0.00 0.00 0.00 39 1015.4
20260506194503 18 129 8.0 24.1 0.00 0.00 0.00 39 1015.7
20260506194000 18 96 8.0 16.1 0.00 0.00 0.00 39 1015.6
20260506193457 18 103 11.3 19.3 0.00 0.00 0.00 39 1015.5
20260506192951 18 98 9.7 22.5 0.00 0.00 0.00 39 1015.6
20260506192449 17 141 6.4 22.5 0.00 0.00 0.00 40 1015.8
20260506191949 18 36 4.8 12.9 0.00 0.00 0.00 39 1015.8
20260506191447 17 97 6.4 14.5 0.00 0.00 0.00 40 1016.1
20260506190947 17 100 9.7 19.3 0.00 0.00 0.00 40 1016.2
20260506190715 17 0 9.7 19.3 0.00 0.00 0.00 41 1016.3
20260506185944 17 96 6.4 16.1 0.00 0.00 0.00 42 1016.2
20260506185444 17 89 6.4 12.9 0.00 0.00 0.00 42 1016.4
20260506184942 17 90 8.0 14.5 0.00 0.00 0.00 41 1016.3
20260506184440 17 0 8.0 14.5 0.00 0.00 0.00 41 1016.4
20260506183941 17 53 4.8 14.5 0.00 0.00 0.00 40 1016.7
20260506183443 17 113 6.4 17.7 0.00 0.00 0.00 42 1016.7
20260506182940 17 118 9.7 17.7 0.00 0.00 0.00 41 1016.9
20260506182440 17 117 8.0 17.7 0.00 0.00 0.00 42 1017.0
20260506181936 17 125 6.4 16.1 0.00 0.00 0.00 44 1017.1
20260506181434 17 123 9.7 20.9 0.00 0.00 0.00 44 1017.1
20260506180934 17 108 8.0 20.9 0.00 0.00 0.00 44 1017.2
20260506180705 17 96 6.4 14.5 0.00 0.00 0.00 44 1017.2
20260506180546 17 101 8.0 16.1 0.00 0.00 0.00 44 1017.3
20260506175432 17 96 6.4 16.1 0.00 0.00 0.00 45 1017.2
20260506174932 17 203 6.4 14.5 0.00 0.00 0.00 46 1017.3
20260506174431 16 107 6.4 16.1 0.00 0.00 0.00 47 1017.5
20260506173930 16 150 6.4 16.1 0.00 0.00 0.00 49 1017.6
20260506173431 15 60 4.8 16.1 0.00 0.00 0.00 50 1017.8
20260506172927 15 79 6.4 16.1 0.00 0.00 0.00 49 1018.1
20260506172657 15 97 8.0 17.7 0.00 0.00 0.00 51 1017.7
20260506171924 15 126 9.7 17.7 0.00 0.00 0.00 51 1017.9
20260506171425 15 0 6.4 16.1 0.00 0.00 0.00 51 1017.9
20260506170923 15 176 4.8 12.9 0.00 0.00 0.00 52 1017.9
20260506170417 14 176 6.4 14.5 0.00 0.00 0.00 54 1018.0
20260506165915 13 69 8.0 14.5 0.00 0.00 0.00 54 1018.0
20260506165638 14 0 6.4 14.5 0.00 0.00 0.00 53 1018.0
20260506164906 14 0 4.8 14.5 0.00 0.00 0.00 54 1018.1
20260506164404 14 0 4.8 14.5 0.00 0.00 0.00 56 1018.0
20260506164135 13 113 4.8 14.5 0.00 0.00 0.00 58 1018.1
20260506163407 12 33 3.2 6.4 0.00 0.00 0.00 62 1018.0
20260506163403 13 84 3.2 8.0 0.00 0.00 0.00 61 1018.1
20260506162403 12 32 4.8 14.5 0.00 0.00 0.00 65 1017.9
20260506161852 11 33 6.4 14.5 0.00 0.00 0.00 64 1018.1
20260506161624 11 37 4.8 11.3 0.00 0.00 0.00 65 1018.2
20260506160852 11 89 4.8 9.7 0.00 0.00 0.00 65 1018.1
20260506160351 11 91 4.8 11.3 0.00 0.00 0.00 67 1018.1